Location: Batang Balui
(2.7000°N, 113.7833°E)
Time: 02:44:03
(UTC+00:00)

Hubble Space Telescope - Pass Details

Date: 03 December 2022
Orbit: 529 x 532 km, 28.5° (Epoch: 06 February)

Event Time Altitude Azimuth Distance (km) Brightness Sun altitude
Exits shadow 21:51:54 - 287° (WNW) 1,955 2.9 -6.3°
Reaches altitude 10° 21:52:39 10° 294° (WNW) 1,759 2.7 -6.2°
Maximum altitude 21:55:12 16° 333° (NNW) 1,418 2.5 -5.6°
Drops below altitude 10° 21:57:45 10° 12° (NNE) 1,755 3.3 -5.0°
Sets 22:00:42 0° 35° (NE) 2,641 4.5 -4.3°
